Language: 


Des rapports , des résumés tant et plus, au choix de chacun....


Données statistiques de la station
Quotidien Rapport Janvier 19, 2018 Unités:  Métrique    Anglais   les deux
« Précédent Jour
Suivant Jour »
Quotidien Hebdomadaire Mensuel Annuel Actuel
  Haut: Bas: Moyen:
Température: -17.8 °C -18.2 °C -15.8 °C
Pt de rosée: -17.8 °C -18.9 °C -17.2 °C
Humidité: Humidity % 58 % 84 %
Vitesse du vent: 0 km/h 0 km/h 9.7 km/h
Rafales: 0 km/h - -
Vent:- - WSW
Pression: 0 hPa 33992.1 hPa -
Précipitation: 0 mm    
Historical Graphs
 
 
Données statistiques pour Janvier 19, 2018
Heure Température Point de rosée Pression Vent Vitesse du vent Refales Humidité Pluie (taux horaire)
-17.8 °C -17.8 °C 0 hPa Calm     Humidity % 0 mm
00:01 -15.3 °C -15.6 °C 33992.1 hPa West 19.2 km/h 23.8 km/h 93 % 0 mm
00:06 -15.3 °C -16.1 °C 33992.1 hPa West 23.8 km/h 25.4 km/h 93 % 0 mm
00:11 -15.3 °C -16.1 °C 33992.1 hPa West 11.1 km/h 30.7 km/h 92 % 0 mm
00:16 -15.3 °C -16.1 °C 34029.3 hPa WSW 15.6 km/h 30.7 km/h 92 % 0 mm
00:21 -15.3 °C -16.1 °C 34029.3 hPa WSW 28.5 km/h 28.5 km/h 91 % 0 mm
00:26 -15.3 °C -16.1 °C 34029.3 hPa WSW 28.5 km/h 31.4 km/h 91 % 0 mm
00:32 -15.3 °C -16.1 °C 34029.3 hPa WSW 24.3 km/h 31.4 km/h 91 % 0 mm
00:37 -15.3 °C -16.1 °C 34029.3 hPa West 11.1 km/h 33.2 km/h 91 % 0 mm
00:42 -15.3 °C -16.1 °C 34029.3 hPa West 20.3 km/h 33.2 km/h 90 % 0 mm
00:47 -15.3 °C -16.1 °C 34029.3 hPa WSW 19.2 km/h 28.5 km/h 89 % 0 mm
00:52 -15.3 °C -16.1 °C 34029.3 hPa West 26.2 km/h 28.5 km/h 89 % 0 mm
00:57 -15.3 °C -16.1 °C 34029.3 hPa West 17.9 km/h 27.2 km/h 89 % 0 mm
01:02 -15.3 °C -16.1 °C 33992.1 hPa West 24.8 km/h 25.4 km/h 89 % 0 mm
01:07 -15.3 °C -16.1 °C 33992.1 hPa West 20.3 km/h 24.8 km/h 88 % 0 mm
01:12 -15.3 °C -16.1 °C 33992.1 hPa WSW 22.5 km/h 25.4 km/h 88 % 0 mm
01:17 -15.4 °C -16.1 °C 33992.1 hPa WSW 22 km/h 25.4 km/h 88 % 0 mm
01:22 -15.4 °C -16.1 °C 33992.1 hPa West 19.6 km/h 25.4 km/h 87 % 0 mm
01:27 -15.4 °C -16.1 °C 33992.1 hPa West 15.6 km/h 19.6 km/h 87 % 0 mm
01:32 -15.5 °C -16.7 °C 34029.3 hPa West 16.3 km/h 20.3 km/h 87 % 0 mm
01:37 -15.5 °C -16.7 °C 34029.3 hPa West 7.6 km/h 20.9 km/h 87 % 0 mm
01:42 -15.5 °C -16.7 °C 34029.3 hPa WNW 15.6 km/h 28.5 km/h 87 % 0 mm
01:47 -15.5 °C -16.7 °C 34029.3 hPa West 16.3 km/h 28.5 km/h 87 % 0 mm
01:52 -15.5 °C -16.7 °C 34029.3 hPa West 19.6 km/h 22 km/h 87 % 0 mm
01:57 -15.5 °C -16.7 °C 34029.3 hPa WSW 16.3 km/h 27.2 km/h 87 % 0 mm
02:02 -15.5 °C -16.7 °C 34063.2 hPa WSW 12.7 km/h 27.2 km/h 87 % 0 mm
02:07 -15.6 °C -16.7 °C 34063.2 hPa West 16.3 km/h 22 km/h 87 % 0 mm
02:12 -15.6 °C -16.7 °C 34063.2 hPa WSW 19.6 km/h 26.7 km/h 87 % 0 mm
02:17 -15.6 °C -16.7 °C 34063.2 hPa West 16.3 km/h 26.7 km/h 87 % 0 mm
02:22 -15.7 °C -16.7 °C 34063.2 hPa West 15.6 km/h 22.5 km/h 87 % 0 mm
02:27 -15.7 °C -16.7 °C 34063.2 hPa WSW 16.9 km/h 22.5 km/h 87 % 0 mm
02:32 -15.7 °C -16.7 °C 34063.2 hPa West 14.5 km/h 22 km/h 87 % 0 mm
02:38 -15.8 °C -16.7 °C 34063.2 hPa WSW 16.3 km/h 22.5 km/h 87 % 0 mm
02:43 -15.8 °C -16.7 °C 34063.2 hPa West 16.3 km/h 22.5 km/h 87 % 0 mm
02:48 -15.9 °C -16.7 °C 34063.2 hPa WSW 19.6 km/h 20.9 km/h 87 % 0 mm
02:53 -15.9 °C -16.7 °C 34063.2 hPa West 15 km/h 20.3 km/h 87 % 0 mm
02:58 -16 °C -16.7 °C 34063.2 hPa WSW 15 km/h 20.3 km/h 87 % 0 mm
03:03 -16.1 °C -17.2 °C 34097 hPa Calm   16.9 km/h 87 % 0 mm
03:08 -16.1 °C -17.2 °C 34097 hPa WSW 12.2 km/h 19.6 km/h 87 % 0 mm
03:13 -16.2 °C -17.2 °C 34097 hPa WSW 15 km/h 19.6 km/h 88 % 0 mm
03:18 -16.2 °C -17.2 °C 34097 hPa West 15.6 km/h 19.6 km/h 88 % 0 mm
03:23 -16.2 °C -17.2 °C 34097 hPa WSW 14.5 km/h 19.6 km/h 88 % 0 mm
03:28 -16.3 °C -17.2 °C 34097 hPa WSW 6.9 km/h 17.9 km/h 88 % 0 mm
03:33 -16.3 °C -17.2 °C 34097 hPa West 16.3 km/h 17.9 km/h 88 % 0 mm
03:38 -16.4 °C -17.2 °C 34097 hPa West 10.3 km/h 17.4 km/h 89 % 0 mm
03:43 -16.4 °C -17.2 °C 34097 hPa Calm   16.9 km/h 89 % 0 mm
03:48 -16.4 °C -17.2 °C 34097 hPa West 15 km/h 16.9 km/h 89 % 0 mm
03:53 -16.6 °C -17.2 °C 34097 hPa Calm   16.9 km/h 89 % 0 mm
03:58 -16.7 °C -17.2 °C 34097 hPa WSW 9.3 km/h 16.3 km/h 88 % 0 mm
04:03 -16.7 °C -17.2 °C 34097 hPa Calm   15 km/h 89 % 0 mm
04:08 -16.8 °C -17.8 °C 34097 hPa Calm   12.2 km/h 89 % 0 mm
04:13 -16.9 °C -17.8 °C 34097 hPa Calm   11.1 km/h 89 % 0 mm
04:19 -16.9 °C -17.8 °C 34097 hPa Calm   10.3 km/h 89 % 0 mm
04:24 -17.1 °C -17.8 °C 34097 hPa Calm   9.3 km/h 89 % 0 mm
04:29 -17.2 °C -17.8 °C 34097 hPa Calm     89 % 0 mm
04:34 -17.2 °C -17.8 °C 34097 hPa Calm     90 % 0 mm
04:39 -17.2 °C -17.8 °C 34097 hPa Calm   6.4 km/h 90 % 0 mm
04:44 -17.2 °C -17.8 °C 34097 hPa Calm   6.4 km/h 91 % 0 mm
04:49 -17.3 °C -17.8 °C 34097 hPa Calm   6.4 km/h 91 % 0 mm
04:54 -17.2 °C -17.8 °C 34097 hPa Calm   5.1 km/h 92 % 0 mm
04:59 -17.2 °C -17.8 °C 34097 hPa Calm     92 % 0 mm
05:04 -17.2 °C -17.8 °C 34097 hPa Calm     93 % 0 mm
05:09 -17.2 °C -17.8 °C 34097 hPa Calm   2.3 km/h 93 % 0 mm
05:14 -17.2 °C -17.8 °C 34063.2 hPa Calm   3.4 km/h 93 % 0 mm
05:19 -17.3 °C -17.8 °C 34063.2 hPa Calm   3.4 km/h 94 % 0 mm
05:24 -17.3 °C -17.8 °C 34063.2 hPa Calm     94 % 0 mm
05:29 -17.3 °C -17.8 °C 34097 hPa Calm   7.6 km/h 94 % 0 mm
05:34 -17.4 °C -17.8 °C 34097 hPa Calm   7.6 km/h 94 % 0 mm
05:39 -17.4 °C -17.8 °C 34097 hPa WSW 9.3 km/h 11.1 km/h 94 % 0 mm
05:44 -17.4 °C -17.8 °C 34097 hPa Calm   11.1 km/h 93 % 0 mm
05:49 -17.4 °C -17.8 °C 34097 hPa Calm   11.1 km/h 94 % 0 mm
05:54 -17.3 °C -17.8 °C 34097 hPa Calm   11.1 km/h 94 % 0 mm
06:00 -17.2 °C -17.2 °C 34097 hPa Calm   8.9 km/h 95 % 0 mm
06:05 -17.2 °C -17.2 °C 34097 hPa Calm   9.8 km/h 95 % 0 mm
06:10 -17.2 °C -17.2 °C 34097 hPa Calm   9.8 km/h 95 % 0 mm
06:15 -17.3 °C -17.2 °C 34097 hPa Calm   6.9 km/h 95 % 0 mm
06:20 -17.4 °C -17.8 °C 34097 hPa Calm   6.9 km/h 95 % 0 mm
06:25 -17.4 °C -17.8 °C 34097 hPa Calm     94 % 0 mm
06:30 -17.5 °C -17.8 °C 34097 hPa Calm     94 % 0 mm
06:35 -17.6 °C -17.8 °C 34097 hPa WSW 5.1 km/h 5.1 km/h 93 % 0 mm
06:40 -17.7 °C -18.3 °C 34097 hPa Calm   5.1 km/h 93 % 0 mm
06:45 -17.8 °C -18.9 °C 34097 hPa Calm     93 % 0 mm
06:50 -17.8 °C -18.9 °C 34097 hPa Calm     93 % 0 mm
06:55 -17.9 °C -18.9 °C 34097 hPa Calm     94 % 0 mm
07:00 -17.9 °C -18.9 °C 34097 hPa Calm     94 % 0 mm
07:05 -17.8 °C -18.3 °C 34097 hPa Calm     95 % 0 mm
07:10 -17.7 °C -17.8 °C 34097 hPa Calm     96 % 0 mm
07:15 -17.7 °C -17.8 °C 34097 hPa Calm     96 % 0 mm
07:20 -17.8 °C -18.3 °C 34097 hPa Calm     96 % 0 mm
07:25 -17.9 °C -18.9 °C 34097 hPa Calm     95 % 0 mm
07:30 -17.9 °C -18.9 °C 34130.9 hPa Calm     95 % 0 mm
07:36 -17.8 °C -18.3 °C 34130.9 hPa Calm     96 % 0 mm
07:41 -17.8 °C -18.3 °C 34130.9 hPa Calm     96 % 0 mm
07:46 -17.8 °C -18.3 °C 34130.9 hPa Calm     97 % 0 mm
07:51 -17.8 °C -18.3 °C 34130.9 hPa Calm     97 % 0 mm
07:56 -17.9 °C -18.3 °C 34130.9 hPa Calm     97 % 0 mm
08:01 -18 °C -18.3 °C 34164.7 hPa Calm     96 % 0 mm
08:06 -18.1 °C -18.9 °C 34164.7 hPa Calm     96 % 0 mm
08:11 -18.1 °C -18.9 °C 34164.7 hPa Calm     96 % 0 mm
08:16 -18.1 °C -18.9 °C 34130.9 hPa Calm   5.6 km/h 96 % 0 mm
08:21 -18.2 °C -18.9 °C 34130.9 hPa Calm   5.6 km/h 96 % 0 mm
08:26 -18.2 °C -18.9 °C 34130.9 hPa Calm     97 % 0 mm
08:31 -18.2 °C -18.9 °C 34164.7 hPa Calm     97 % 0 mm
08:36 -18.2 °C -18.9 °C 34164.7 hPa Calm     97 % 0 mm
08:41 -18.2 °C -18.9 °C 34164.7 hPa Calm     97 % 0 mm
08:46 -18.2 °C -18.9 °C 34164.7 hPa Calm     97 % 0 mm
08:51 -18.2 °C -18.9 °C 34164.7 hPa Calm   8 km/h 97 % 0 mm
08:57 -18.2 °C -18.9 °C 34164.7 hPa Calm   8 km/h 97 % 0 mm
09:02 -18.2 °C -18.3 °C 34164.7 hPa Calm     98 % 0 mm
09:07 -18.2 °C -18.9 °C 34164.7 hPa Calm     98 % 0 mm
09:12 -18.2 °C -18.9 °C 34164.7 hPa Calm     98 % 0 mm
09:17 -18.1 °C -18.3 °C 34130.9 hPa Calm   7.6 km/h 98 % 0 mm
09:22 -17.8 °C -18.3 °C 34130.9 hPa Calm   7.6 km/h 98 % 0 mm
09:27 -17.7 °C -17.8 °C 34130.9 hPa Calm   6.4 km/h 98 % 0 mm
09:32 -17.7 °C -17.8 °C 34164.7 hPa Calm   6.9 km/h 98 % 0 mm
09:37 -17.4 °C -17.2 °C 34164.7 hPa Calm   6.9 km/h 98 % 0 mm
09:42 -17.4 °C -17.2 °C 34164.7 hPa West 2.3 km/h 10.3 km/h 98 % 0 mm
09:47 -17.2 °C -17.2 °C 34164.7 hPa Calm   11.1 km/h 98 % 0 mm
09:52 -17.1 °C -17.2 °C 34164.7 hPa Calm   11.1 km/h 98 % 0 mm
09:57 -17.1 °C -17.2 °C 34164.7 hPa WSW 12.7 km/h 12.7 km/h 98 % 0 mm
10:02 -17.1 °C -17.2 °C 34164.7 hPa WSW 12.2 km/h 14.5 km/h 98 % 0 mm
10:07 -16.7 °C -16.7 °C 34164.7 hPa Calm   14.5 km/h 98 % 0 mm
10:12 -16.6 °C -16.7 °C 34164.7 hPa West 2.9 km/h 11.1 km/h 98 % 0 mm
10:17 -16.5 °C -16.1 °C 34164.7 hPa WSW 12.7 km/h 12.7 km/h 98 % 0 mm
10:22 -16.4 °C -16.1 °C 34164.7 hPa Calm   12.7 km/h 98 % 0 mm
10:27 -16.3 °C -16.1 °C 34164.7 hPa Calm   12.7 km/h 98 % 0 mm
10:32 -16.3 °C -16.1 °C 34164.7 hPa WSW 3.4 km/h 12.7 km/h 98 % 0 mm
10:37 -16.1 °C -16.1 °C 34164.7 hPa WSW 9.8 km/h 15.6 km/h 98 % 0 mm
10:42 -15.8 °C -15.6 °C 34164.7 hPa WSW 15 km/h 16.9 km/h 98 % 0 mm
10:48 -15.6 °C -15.6 °C 34164.7 hPa WSW 17.9 km/h 19.6 km/h 98 % 0 mm
10:53 -15.4 °C -15.6 °C 34164.7 hPa WSW 17.9 km/h 19.6 km/h 98 % 0 mm
10:58 -15.3 °C -15.6 °C 34164.7 hPa WSW 14.5 km/h 22 km/h 98 % 0 mm
11:03 -15.2 °C -15 °C 34164.7 hPa WSW 15 km/h 22 km/h 98 % 0 mm
11:08 -15 °C -15 °C 34164.7 hPa WSW 11.1 km/h 20.3 km/h 97 % 0 mm
11:13 -14.9 °C -15 °C 34164.7 hPa WSW 12.7 km/h 20.3 km/h 96 % 0 mm
11:18 -14.7 °C -15 °C 34164.7 hPa WSW 16.3 km/h 16.9 km/h 95 % 0 mm
11:23 -14.7 °C -15 °C 34164.7 hPa SW 11.1 km/h 20.9 km/h 94 % 0 mm
11:28 -14.6 °C -15 °C 34164.7 hPa WSW 3.4 km/h 20.9 km/h 92 % 0 mm
11:33 -14.6 °C -15 °C 34198.6 hPa WSW 15 km/h 19.6 km/h 92 % 0 mm
11:38 -14.4 °C -15 °C 34198.6 hPa WSW 16.9 km/h 22 km/h 89 % 0 mm
11:43 -14.4 °C -15 °C 34198.6 hPa WSW 24.8 km/h 29 km/h 89 % 0 mm
11:48 -14.4 °C -15 °C 34198.6 hPa WSW 22.5 km/h 29 km/h 89 % 0 mm
11:53 -14.3 °C -15.6 °C 34198.6 hPa WSW 20.3 km/h 26.2 km/h 84 % 0 mm
11:58 -14.2 °C -15.6 °C 34198.6 hPa WSW 16.3 km/h 24.8 km/h 83 % 0 mm
12:03 -14.2 °C -15.6 °C 34198.6 hPa SW 19.2 km/h 24.8 km/h 83 % 0 mm
12:08 -14.2 °C -15.6 °C 34198.6 hPa WSW 14.5 km/h 20.9 km/h 83 % 0 mm
12:13 -13.9 °C -15.6 °C 34198.6 hPa WSW 22 km/h 26.7 km/h 81 % 0 mm
12:18 -13.9 °C -15.6 °C 34198.6 hPa WSW 20.3 km/h 26.7 km/h 81 % 0 mm
12:23 -13.7 °C -15.6 °C 34198.6 hPa WSW 25.4 km/h 27.2 km/h 79 % 0 mm
12:28 -13.7 °C -15.6 °C 34164.7 hPa WSW 37.5 km/h 37.5 km/h 77 % 0 mm
12:33 -13.7 °C -15.6 °C 34164.7 hPa WSW 20.3 km/h 37.5 km/h 77 % 0 mm
12:38 -13.7 °C -15.6 °C 34164.7 hPa WSW 22.5 km/h 32.3 km/h 77 % 0 mm
12:43 -13.7 °C -15.6 °C 34198.6 hPa WSW 20.3 km/h 34.8 km/h 77 % 0 mm
12:48 -13.7 °C -15.6 °C 34198.6 hPa WSW 20.9 km/h 34.8 km/h 77 % 0 mm
12:54 -13.5 °C -15.6 °C 34198.6 hPa West 22 km/h 28.5 km/h 75 % 0 mm
12:59 -13.5 °C -15.6 °C 34164.7 hPa WSW 22.5 km/h 28.5 km/h 75 % 0 mm
13:04 -13.5 °C -15.6 °C 34164.7 hPa WSW 19.6 km/h 31.9 km/h 75 % 0 mm
13:09 -13.3 °C -15.6 °C 34164.7 hPa WSW 19.6 km/h 39.4 km/h 73 % 0 mm
13:14 -13.5 °C -16.1 °C 34164.7 hPa WSW 28.5 km/h 39.4 km/h 73 % 0 mm
13:19 -13.5 °C -16.1 °C 34164.7 hPa WSW 26.7 km/h 33.6 km/h 73 % 0 mm
13:24 -13.5 °C -16.1 °C 34164.7 hPa WSW 16.3 km/h 33.6 km/h 73 % 0 mm
13:29 -13.5 °C -16.1 °C 34164.7 hPa WSW 33.6 km/h 38.3 km/h 73 % 0 mm
13:34 -13.5 °C -16.1 °C 34164.7 hPa WSW 19.6 km/h 38.3 km/h 73 % 0 mm
13:39 -13.5 °C -16.1 °C 34164.7 hPa WSW 27.2 km/h 37.5 km/h 73 % 0 mm
13:44 -13.5 °C -16.1 °C 34164.7 hPa WSW 20.3 km/h 36.5 km/h 73 % 0 mm
13:49 -13.5 °C -15.6 °C 34164.7 hPa West 19.6 km/h 32.3 km/h 75 % 0 mm
13:54 -13.5 °C -15.6 °C 34164.7 hPa West 22.5 km/h 32.3 km/h 75 % 0 mm
13:59 -13.5 °C -15.6 °C 34164.7 hPa WSW 19.6 km/h 37.5 km/h 75 % 0 mm
14:04 -13.5 °C -15.6 °C 34164.7 hPa WSW 27.2 km/h 37.5 km/h 75 % 0 mm
14:09 -13.5 °C -15.6 °C 34164.7 hPa WSW 26.2 km/h 33.6 km/h 75 % 0 mm
14:14 -13.6 °C -16.1 °C 34164.7 hPa WSW 15.6 km/h 30.7 km/h 74 % 0 mm
14:19 -13.3 °C -15.6 °C 34164.7 hPa WSW 22.5 km/h 26.7 km/h 72 % 0 mm
14:24 -13.3 °C -15.6 °C 34164.7 hPa WNW 15.6 km/h 28.5 km/h 72 % 0 mm
14:29 -13.3 °C -15.6 °C 34130.9 hPa West 20.3 km/h 33.2 km/h 72 % 0 mm
14:35 -13.3 °C -15.6 °C 34130.9 hPa WSW 20.9 km/h 45.1 km/h 72 % 0 mm
14:40 -13.3 °C -15.6 °C 34130.9 hPa West 40.7 km/h 45.1 km/h 72 % 0 mm
14:45 -13.3 °C -15.6 °C 34164.7 hPa West 39.9 km/h 52 km/h 72 % 0 mm
14:50 -13.1 °C -17.2 °C 34164.7 hPa WSW 23.8 km/h 52 km/h 58 % 0 mm
14:55 -13.1 °C -17.2 °C 34164.7 hPa West 33.6 km/h 45.1 km/h 58 % 0 mm
15:00 -13.1 °C -17.2 °C 34164.7 hPa West 20.3 km/h 38.3 km/h 58 % 0 mm
15:05 -13.1 °C -17.2 °C 34164.7 hPa West 27.7 km/h 37.5 km/h 58 % 0 mm
15:10 -13.1 °C -17.2 °C 34164.7 hPa West 26.7 km/h 34.1 km/h 58 % 0 mm
15:15 -13.1 °C -17.2 °C 34164.7 hPa WSW 27.2 km/h 39.9 km/h 58 % 0 mm
15:20 -13.1 °C -17.2 °C 34164.7 hPa WSW 27.2 km/h 39.9 km/h 58 % 0 mm
15:25 -13.1 °C -17.2 °C 34164.7 hPa West 24.8 km/h 39.9 km/h 58 % 0 mm
15:30 -13.1 °C -17.2 °C 34164.7 hPa West 27.2 km/h 39.4 km/h 58 % 0 mm
15:35 -13.1 °C -17.2 °C 34164.7 hPa WSW 19.6 km/h 39.4 km/h 58 % 0 mm
15:40 -13.1 °C -17.2 °C 34164.7 hPa West 17.9 km/h 31.9 km/h 58 % 0 mm
15:45 -13.1 °C -17.2 °C 34164.7 hPa West 26.7 km/h 39.9 km/h 58 % 0 mm
15:50 -13.3 °C -17.2 °C 34164.7 hPa WSW 24.8 km/h 39.9 km/h 59 % 0 mm
15:55 -13.3 °C -17.2 °C 34164.7 hPa WNW 39.4 km/h 44.1 km/h 59 % 0 mm
16:00 -13.3 °C -17.2 °C 34164.7 hPa West 24.8 km/h 44.1 km/h 59 % 0 mm
16:05 -13.3 °C -17.2 °C 34164.7 hPa West 27.2 km/h 38.3 km/h 59 % 0 mm
16:10 -13.3 °C -17.2 °C 34164.7 hPa West 17.9 km/h 38.3 km/h 59 % 0 mm
16:15 -13.6 °C -17.8 °C 34130.9 hPa West 22 km/h 38.3 km/h 58 % 0 mm
16:20 -13.6 °C -17.8 °C 34130.9 hPa West 16.9 km/h 34.1 km/h 58 % 0 mm
16:25 -13.7 °C -17.8 °C 34130.9 hPa WSW 14 km/h 22 km/h 61 % 0 mm
16:30 -13.7 °C -17.8 °C 34130.9 hPa WSW 16.9 km/h 28.5 km/h 61 % 0 mm
16:35 -13.7 °C -17.8 °C 34130.9 hPa NW 15.6 km/h 28.5 km/h 61 % 0 mm
16:40 -13.7 °C -17.8 °C 34130.9 hPa West 20.3 km/h 28.5 km/h 61 % 0 mm
16:45 -13.7 °C -17.8 °C 34130.9 hPa WNW 20.3 km/h 25.4 km/h 61 % 0 mm
16:51 -13.7 °C -17.8 °C 34130.9 hPa West 16.3 km/h 24.3 km/h 61 % 0 mm
16:56 -13.7 °C -17.8 °C 34130.9 hPa West 11.1 km/h 27.2 km/h 61 % 0 mm
17:01 -13.7 °C -17.8 °C 34164.7 hPa West 19.6 km/h 27.2 km/h 61 % 0 mm
17:06 -13.7 °C -17.8 °C 34164.7 hPa West 12.7 km/h 24.8 km/h 61 % 0 mm
17:11 -13.7 °C -17.8 °C 34164.7 hPa West 2.9 km/h 20.9 km/h 61 % 0 mm
17:16 -13.7 °C -17.8 °C 34164.7 hPa West 16.3 km/h 18.7 km/h 61 % 0 mm
17:21 -13.7 °C -17.8 °C 34164.7 hPa WSW 15 km/h 26.2 km/h 61 % 0 mm
17:26 -13.7 °C -17.8 °C 34164.7 hPa West 12.7 km/h 26.2 km/h 61 % 0 mm
17:31 -15.2 °C -17.8 °C 34164.7 hPa WSW 15 km/h 16.9 km/h 72 % 0 mm
17:36 -15.3 °C -17.8 °C 34164.7 hPa West 18.7 km/h 20.3 km/h 73 % 0 mm
17:41 -15.3 °C -17.8 °C 34164.7 hPa WSW 15.6 km/h 20.3 km/h 74 % 0 mm
17:46 -15.4 °C -17.8 °C 34164.7 hPa WSW 8.9 km/h 19.6 km/h 74 % 0 mm
17:51 -15.6 °C -17.8 °C 34164.7 hPa WSW 16.9 km/h 16.9 km/h 75 % 0 mm
17:56 -15.6 °C -17.8 °C 34164.7 hPa SW 14.5 km/h 16.9 km/h 76 % 0 mm
18:01 -15.7 °C -17.8 °C 34164.7 hPa SSW 9.3 km/h 16.9 km/h 76 % 0 mm
18:06 -15.7 °C -17.8 °C 34164.7 hPa SW 8 km/h 14.5 km/h 77 % 0 mm
18:11 -15.7 °C -17.8 °C 34164.7 hPa SSW 14 km/h 14 km/h 77 % 0 mm
18:16 -15.7 °C -17.8 °C 34164.7 hPa WSW 12.7 km/h 15.6 km/h 77 % 0 mm
18:21 -15.7 °C -17.8 °C 34164.7 hPa WSW 9.3 km/h 15.6 km/h 77 % 0 mm
18:26 -15.7 °C -17.8 °C 34164.7 hPa Calm   15.6 km/h 77 % 0 mm
18:31 -15.7 °C -17.8 °C 34164.7 hPa Calm   10.3 km/h 77 % 0 mm
18:36 -15.7 °C -17.8 °C 34164.7 hPa Calm   8.9 km/h 77 % 0 mm
18:41 -15.7 °C -17.8 °C 34164.7 hPa Calm     77 % 0 mm
18:46 -15.7 °C -17.8 °C 34164.7 hPa Calm     77 % 0 mm
18:51 -15.7 °C -17.8 °C 34164.7 hPa Calm     77 % 0 mm
18:56 -15.7 °C -17.8 °C 34164.7 hPa Calm   9.8 km/h 77 % 0 mm
19:01 -15.7 °C -17.8 °C 34164.7 hPa WSW 2.3 km/h 10.3 km/h 77 % 0 mm
19:06 -15.7 °C -17.8 °C 34164.7 hPa Calm   15 km/h 77 % 0 mm
19:11 -15.7 °C -17.8 °C 34164.7 hPa Calm   15 km/h 77 % 0 mm
19:16 -15.7 °C -17.8 °C 34198.6 hPa Calm   14.5 km/h 77 % 0 mm
19:21 -15.7 °C -17.8 °C 34198.6 hPa Calm   14.5 km/h 77 % 0 mm
19:26 -15.7 °C -17.8 °C 34198.6 hPa Calm     77 % 0 mm
19:31 -15.7 °C -17.8 °C 34164.7 hPa Calm     77 % 0 mm
19:36 -15.7 °C -17.8 °C 34164.7 hPa Calm   11.6 km/h 77 % 0 mm
19:42 -16.7 °C -17.8 °C 34164.7 hPa Calm   11.6 km/h 84 % 0 mm
19:47 -16.7 °C -17.8 °C 34164.7 hPa Calm     84 % 0 mm
19:52 -16.6 °C -17.8 °C 34164.7 hPa Calm     86 % 0 mm
19:57 -16.6 °C -17.8 °C 34164.7 hPa SSW 10.3 km/h 10.3 km/h 86 % 0 mm
20:02 -16.4 °C -17.2 °C 34164.7 hPa Calm   10.3 km/h 87 % 0 mm
20:07 -16.4 °C -17.2 °C 34164.7 hPa Calm   9.8 km/h 86 % 0 mm
20:12 -16.5 °C -17.2 °C 34164.7 hPa SSW 5.6 km/h 6.4 km/h 86 % 0 mm
20:17 -16.6 °C -17.8 °C 34164.7 hPa Calm   6.4 km/h 86 % 0 mm
20:22 -16.6 °C -17.8 °C 34164.7 hPa Calm   5.6 km/h 86 % 0 mm
20:27 -16.6 °C -17.8 °C 34164.7 hPa South 6.9 km/h 6.9 km/h 86 % 0 mm
20:32 -16.6 °C -17.8 °C 34198.6 hPa Calm   8.9 km/h 86 % 0 mm
20:37 -16.6 °C -17.2 °C 34198.6 hPa Calm   8.9 km/h 87 % 0 mm
20:42 -16.7 °C -17.2 °C 34198.6 hPa SSW 2.3 km/h 9.3 km/h 87 % 0 mm
20:47 -16.7 °C -17.2 °C 34164.7 hPa SSW 9.3 km/h 9.3 km/h 87 % 0 mm
20:52 -16.6 °C -17.2 °C 34164.7 hPa Calm   11.1 km/h 87 % 0 mm
20:57 -16.5 °C -17.2 °C 34164.7 hPa Calm   11.1 km/h 88 % 0 mm
21:02 -16.4 °C -17.2 °C 34164.7 hPa SSW 12.7 km/h 16.3 km/h 88 % 0 mm
21:07 -16.3 °C -17.2 °C 34164.7 hPa Calm   19.6 km/h 89 % 0 mm
21:12 -16.3 °C -17.2 °C 34164.7 hPa Calm   19.6 km/h 89 % 0 mm
21:17 -16.3 °C -17.2 °C 34164.7 hPa Calm   14.5 km/h 89 % 0 mm
21:22 -16.4 °C -17.2 °C 34164.7 hPa WSW 12.2 km/h 12.7 km/h 88 % 0 mm
21:27 -16.5 °C -17.2 °C 34164.7 hPa WSW 15.6 km/h 15.6 km/h 88 % 0 mm
21:32 -16.4 °C -17.2 °C 34198.6 hPa Calm   15.6 km/h 89 % 0 mm
21:37 -16.4 °C -17.2 °C 34198.6 hPa Calm   15.6 km/h 89 % 0 mm
21:42 -16.4 °C -17.2 °C 34198.6 hPa Calm   11.1 km/h 89 % 0 mm
21:47 -16.4 °C -17.2 °C 34198.6 hPa Calm   10.3 km/h 89 % 0 mm
21:52 -16.4 °C -17.2 °C 34198.6 hPa Calm   11.6 km/h 89 % 0 mm
21:57 -16.5 °C -17.2 °C 34198.6 hPa Calm   11.6 km/h 88 % 0 mm
22:02 -16.5 °C -17.2 °C 34198.6 hPa Calm   11.1 km/h 89 % 0 mm
22:07 -16.6 °C -17.2 °C 34198.6 hPa SSW 9.8 km/h 11.1 km/h 88 % 0 mm
22:13 -16.6 °C -17.2 °C 34198.6 hPa SSW 8.9 km/h 12.7 km/h 89 % 0 mm
22:18 -16.6 °C -17.2 °C 34198.6 hPa Calm   12.7 km/h 89 % 0 mm
22:23 -16.6 °C -17.2 °C 34198.6 hPa West 6.9 km/h 11.1 km/h 90 % 0 mm
22:28 -16.6 °C -17.2 °C 34198.6 hPa Calm   6.9 km/h 90 % 0 mm
22:33 -16.7 °C -17.2 °C 34198.6 hPa Calm   5.6 km/h 89 % 0 mm
22:38 -16.7 °C -17.2 °C 34198.6 hPa Calm     89 % 0 mm
22:43 -16.8 °C -17.8 °C 34198.6 hPa Calm     89 % 0 mm
22:48 -16.9 °C -17.8 °C 34198.6 hPa Calm     89 % 0 mm
22:53 -17.1 °C -17.8 °C 34198.6 hPa Calm     88 % 0 mm
22:58 -17.2 °C -18.3 °C 34198.6 hPa Calm     88 % 0 mm
23:03 -17.2 °C -18.3 °C 34198.6 hPa Calm     88 % 0 mm
23:08 -17.3 °C -17.8 °C 34198.6 hPa Calm     89 % 0 mm
23:13 -17.4 °C -18.3 °C 34198.6 hPa Calm     89 % 0 mm
23:18 -17.4 °C -18.3 °C 34198.6 hPa Calm     89 % 0 mm
23:23 -17.5 °C -18.3 °C 34198.6 hPa Calm     90 % 0 mm
23:28 -17.6 °C -18.3 °C 34198.6 hPa Calm     90 % 0 mm
23:33 -17.6 °C -18.3 °C 34198.6 hPa Calm     90 % 0 mm
23:38 -17.6 °C -18.3 °C 34198.6 hPa Calm     91 % 0 mm
23:43 -17.5 °C -17.8 °C 34198.6 hPa Calm     91 % 0 mm
23:48 -17.4 °C -17.8 °C 34198.6 hPa Calm     92 % 0 mm
23:53 -17.4 °C -17.8 °C 34198.6 hPa Calm     92 % 0 mm
23:58 -17.4 °C -17.8 °C 34198.6 hPa Calm     93 % 0 mm
Le Gheer Warneton
Courtoisie de Weather Underground - 2.5 mb

Mise a jour : 25/02/2018 18:29:12
Généré par Cumulus 1.9.4 (1099)